Regional Weather Roundup
Issued by NWS

Home | Current Version | Previous Version | Graphics & Text | Print | Product List | Glossary Off
Versions: 1 2 3 4 5 6 7 8 9 10 11 12 13 14 15 16 17 18 19 20 21 22 23 24 25 26 27 28 29 30 31 32 33 34 35 36 37 38 39 40 41 42 43 44 45 46 47 48 49 50

000
ASUS43 KDMX 282207
RWRIA

WEATHER ROUNDUP FOR IOWA
NATIONAL WEATHER SERVICE DES MOINES IA
500 PM CDT FRI AUG 28 2015

NOTE: "FAIR" INDICATES FEW OR NO CLOUDS BELOW 12,000 FEET WITH NO
SIGNIFICANT WEATHER AND/OR OBSTRUCTIONS TO VISIBILITY.

* - THESE STATIONS ARE NOT NWS STATIONS...THUS NOT UNDER NWS
QUALITY CONTROL.  THEY ALSO DO NOT REPORT WEATHER SUCH
AS PRECIPITATION OR FOG.

IAZ001>003-012>014-020>022-031>034-043>046-282300-
   NORTHWEST IOWA

CITY           SKY/WX    TMP DP  RH WIND       PRES   REMARKS
CARROLL *      CLOUDY    72  72 100 CALM      29.83S
CHEROKEE *     CLOUDY    61  61 100 NE10G17   29.90R
DENISON *      CLOUDY    72  68  88 NW7       29.83R
LE MARS *      CLOUDY    64  61  88 NE12G21   29.92R
ORANGE CITY *  CLOUDY    64  61  88 NE8G16    29.93R
SHELDON *      CLOUDY    63  59  88 NE13      29.92S
SIOUX CITY     CLOUDY    67  61  81 N20       29.89R
SPENCER        CLOUDY    62  58  86 E17       29.92S
STORM LAKE *   CLOUDY    63  63 100 NE15G21   29.88S FOG
$$

IAZ055>058-069>071-079>083-090>094-282300-
   SOUTHWEST IOWA

CITY           SKY/WX    TMP DP  RH WIND       PRES   REMARKS
ATLANTIC *     CLOUDY    73  72  94 S6        29.83S
AUDUBON *      MOSUNNY   73  70  88 S5        29.84S
CLARINDA *     PTSUNNY   81  72  74 S12       29.85F HX  84
COUNCIL BLFS * CLOUDY    73  68  83 NW13G23   29.86S
CRESTON *      PTSUNNY   77  68  73 S23       29.85F
HARLAN  *      CLOUDY    73 -33   1 W13       29.88R HAZE
LAMONI         MOSUNNY   77  68  73 S14G23    29.88F
RED OAK *      CLOUDY    77  72  83 SW7       29.84S
SHENANDOAH *   PTSUNNY   79  73  83 SW6       29.84S HX  82
$$

IAZ047>049-059>061-072>074-084-282300-
   CENTRAL IOWA

CITY           SKY/WX    TMP DP  RH WIND       PRES   REMARKS
AMES           LGT RAIN  67  67 100 E5        29.85S VSB 3/4
ANKENY *       CLOUDY    73  68  83 S10G21    29.84S
CHARITON *     SUNNY     75  66  73 S16G28    29.87F
DES MOINES     LGT RAIN  76  66  71 S14       29.84S
GRINNELL*      PTSUNNY   72  64  78 SE20G25   29.86F
KNOXVILLE *    PTSUNNY   73  66  78 S14G20    29.85S
MARSHALLTOWN   TSTM      64  63  96 E17       29.86F VSB 1/2
PELLA *        MOSUNNY   72  70  94 S12G18    29.88R
PERRY *        CLOUDY    73  70  88 S8        29.84S
$$

IAZ004>006-015-016-023>025-035-036-282300-
   NORTH CENTRAL IOWA

CITY           SKY/WX    TMP DP  RH WIND       PRES   REMARKS
ALGONA *       CLOUDY    61  59  94 E12G25    29.91S
CLARION *      FOG       61  61 100 E14G20    29.90R VSB 3/4
ESTHERVILLE    CLOUDY    60  58  92 E14G22    29.94S
FORT DODGE *   CLOUDY    63  61  94 NE9       29.88S
MASON CITY     LGT RAIN  58  57  97 E12       29.96F FOG
FOREST CITY *  DRIZZLE   57  55  94 E14G23    29.93F
IOWA FALLS *   LGT RAIN  64  63  94 E10G16    29.90S
$$

IAZ007>011-017>019-026>030-037>042-050>054-066-282300-
   NORTHEAST IOWA

CITY           SKY/WX    TMP DP  RH WIND       PRES   REMARKS
CEDAR RAPIDS   CLOUDY    68  64  87 SE16G28   29.92F
CHARLES CITY * LGT RAIN  59  59 100 NE12G18   29.97F
CLINTON *      CLOUDY    70  64  83 SE7       30.06R
DECORAH *      LGT RAIN  59  59 100 E10       30.01S
DUBUQUE        CLOUDY    64  61  90 E10       30.01F
MONTICELLO *   CLOUDY    66  63  88 SE12      29.97S
OELWEIN *      LGT RAIN  63  59  88 SE18G31   29.94
WATERLOO       LGT RAIN  63  61  93 SE21G30   29.90S FOG
$$

IAZ064-065-067-068-078-282300-
   EAST CENTRAL IOWA

CITY           SKY/WX    TMP DP  RH WIND       PRES   REMARKS
DAVENPORT      CLOUDY    70  63  78 SE8       30.03S
IOWA CITY      CLOUDY    71  63  75 SE17G26   29.94F
MT. PLEASANT * CLOUDY    75  59  57 SE14G23   29.96F
MUSCATINE *    CLOUDY    72  64  78 SE9G16    29.98F
$$

IAZ062-063-075>077-085>089-095>099-282300-
   SOUTHEAST IOWA

CITY           SKY/WX    TMP DP  RH WIND       PRES   REMARKS
BURLINGTON     CLOUDY    73  64  73 S12       29.98F
FAIRFIELD *    MOSUNNY   73  61  64 S20G26    29.93S
FORT MADISON * SUNNY     72  63  73 S13G20    29.98S
KEOKUK *       SUNNY     73  64  73 SE13G20   29.97S
OSKALOOSA *    LGT RAIN  70  64  83 S14G24    29.89F
CENTERVILLE *  MOSUNNY   72  64  78 S14G22    29.92F
OTTUMWA        CLOUDY    72  63  73 S18G28    29.88F
WASHINGTON *     N/A    N/A N/A N/A MISG        N/A
$$

ABBREVIATIONS USED IN REMARKS
   TC - TEMPERATURES IN CELSIUS
  WCI - WIND CHILL INDEX
   HX - HEAT INDEX
  VSB - VISIBILITY
$$



USA.gov is the U.S. government's official web portal to all federal, state and local government web resources and services.